Terminal Aerodrome Forecast
Issued by NWS

Home | Current Version | Previous Version | Text Only | Print | Product List | Glossary On
Versions: 1 2 3 4 5 6 7 8 9 10 11 12 13 14 15 16 17 18 19 20 21 22 23 24 25 26 27 28 29 30 31
000
FTPA31 PHFO 202300
TAFITO
TAF
PHTO 202330Z 2100/2124 06009KT P6SM SCT025 BKN045
     FM210500 23005KT P6SM VCSH SCT025 BKN035 OVC050
      TEMPO 2106/2110 3SM RA BR BKN025
     FM212000 06009KT P6SM SCT025 BKN045=

USA.gov is the U.S. government's official web portal to all federal, state and local government web resources and services.